Location: Besdiekow
(49.8644°N, 14.7523°E)
Time: 14:11:14
(UTC+00:00)

Daily predictions for brighter satellites

Satellite Brightness Start Highest point End
(mag) Time Altitude Azimuth Time Altitude Azimuth Time Altitude Azimuth
Cosmos 1452 Rocket 3.5 19:42:28 10° SSW 19:47:43 80° ESE 19:53:00 10° NNE
MetOp-B 4.2 19:44:00 10° SSE 19:49:22 90° NE 19:54:46 10° NNW
Cosmos 1110 Rocket 4.2 19:46:10 10° S 19:51:18 57° ESE 19:56:31 10° NNE
X-37B 2.1 19:49:37 10° WSW 19:51:44 19° SSW 19:53:52 10° SSE
Cosmos 2154 Rocket 4.2 19:46:27 10° N 19:52:37 60° ENE 19:58:43 10° SSE
Cosmos 2228 3.0 19:53:18 10° N 19:57:33 70° ENE 20:01:46 10° SSE
Cosmos 968 Rocket 3.9 19:56:06 10° NNW 20:01:13 52° ENE 20:06:18 10° SE
Cosmos 1697 Rocket 2.8 19:56:19 10° NNW 20:01:58 79° WSW 20:07:33 10° SSE
Cosmos 1980 Rocket 2.5 19:56:55 10° NNW 20:02:35 61° ENE 20:08:12 10° SE
SL-16 R/B 3.8 20:00:06 10° NNW 20:04:44 25° NE 20:09:22 10° E
Cosmos 2369 3.8 20:05:09 10° NNW 20:10:55 76° ENE 20:16:35 10° SE
ATLAS 5 CENTAUR R/B 2.9 20:09:34 10° SSE 20:11:44 15° ESE 20:14:02 10° ENE
Cosmos 2058 Rocket 4.1 20:08:10 10° N 20:12:11 32° ENE 20:16:04 11° SE
CZ-2C R/B 4.3 20:11:49 10° NNE 20:16:06 39° E 20:20:16 10° SSE
Cosmos 2344 4.3 20:07:38 10° NW 20:16:22 89° SW 20:28:17 11° SE
Meteor 2-1 Rocket 4.2 20:10:55 10° N 20:16:28 80° ENE 20:22:02 10° SSE
Cosmos 1408 3.8 20:14:47 11° SE 20:17:17 23° E 20:20:04 10° NE
Resurs 01 Rocket 3.4 20:13:34 10° SSW 20:17:28 30° W 20:21:24 10° NNW
COSMOS 2406 3.3 20:15:46 10° SSW 20:21:26 61° ESE 20:27:07 10° NE
SJ 16-02 3.6 20:19:37 10° NNE 20:22:15 15° NE 20:24:52 10° E
Cosmos 2184 Rocket 4.4 20:17:19 10° NNW 20:23:26 65° W 20:29:35 10° S
H-2A R/B 3.9 20:20:56 10° N 20:25:01 36° WNW 20:29:06 10° SW
Cosmos 1833 Rocket 2.9 20:21:28 10° SSW 20:27:05 79° WNW 20:32:45 10° NNE
Cosmos 1867 3.6 20:24:18 10° NW 20:29:48 86° SW 20:34:38 13° SE
Cosmos 1703 4.3 20:29:57 10° SSW 20:33:41 47° WNW 20:37:26 10° N
Cosmos 1825 3.8 20:33:23 13° SE 20:35:24 19° E 20:38:08 10° NE
Cosmos 1606 Rocket 3.7 20:31:12 10° NNW 20:35:32 74° W 20:39:49 10° S
USA 245 4.2 20:32:50 10° S 20:36:24 37° WSW 20:39:21 10° NNW
Cosmos 2322 Rocket 3.6 20:34:04 10° NNW 20:39:03 30° NE 20:44:01 10° ESE
CZ-4B R/B 3.9 20:42:38 10° NNW 20:44:43 18° WNW 20:46:48 10° WSW
USA 234 4.0 20:39:22 10° E 20:45:43 54° NNE 20:52:04 10° WNW
GP-B 3.7 20:41:41 10° NNE 20:45:55 41° E 20:49:01 17° SSE
ARIANE 5 R/B 2.6 20:44:14 15° SSE 20:47:55 81° ENE 20:52:21 10° NNW
Terra 1.9 20:44:04 13° S 20:48:22 77° WSW 20:53:10 10° NNW
SPOT 5 3.3 20:47:00 10° S 20:51:12 48° W 20:55:25 10° NNW
Cosmos 2278 3.8 20:47:06 10° NNW 20:52:52 83° ENE 20:57:25 17° SSE
Cosmos 2341 Rocket 4.0 20:47:37 10° N 20:53:59 80° E 20:59:17 15° SSE
USA 276 1.9 20:51:48 10° W 20:54:49 68° SSW 20:56:54 18° ESE
FALCON 9 DEB 3.0 20:52:47 10° WNW 20:56:01 61° SSW 20:58:00 21° SE
Cosmos 1726 Rocket 4.0 20:53:10 10° NNW 20:57:26 57° W 21:01:15 13° S
Cosmos 2333 Rocket 4.2 20:54:59 10° NNW 20:59:23 22° NE 21:03:47 10° E
Cosmos 1992 Rocket 4.3 20:57:38 14° S 21:01:55 48° ESE 21:06:57 10° NNE
Meteor 1-11 4.2 20:58:41 10° S 21:04:15 81° E 21:09:51 10° NNE
Cosmos 2082 Rocket 2.2 20:59:31 10° SSW 21:05:15 89° E 21:10:59 10° NNE
Cosmos 1486 Rocket 4.0 21:00:43 10° NNW 21:05:58 78° ENE 21:09:45 19° SSE
Cosmos 1633 4.1 21:05:14 17° ESE 21:06:25 20° E 21:09:02 10° NE
Okean 1-7 Rocket 4.0 21:03:33 19° SSE 21:06:27 46° E 21:10:46 10° NNE
ASTEX 1 3.5 21:02:59 10° N 21:07:59 64° E 21:11:40 18° S
Helios 1A Rocket 4.3 21:04:55 10° SSW 21:08:38 33° W 21:12:24 10° NNW
SAR-Lupe-1 4.4 21:07:02 10° NNE 21:10:31 47° E 21:12:24 23° SSE
TIMED 4.5 21:07:30 10° SSW 21:11:52 89° E 21:16:15 10° NNE
ADEOS Rocket 4.5 21:06:17 11° ESE 21:12:43 39° ENE 21:19:44 10° N
Cosmos 2360 Rocket 3.4 21:08:31 10° NNW 21:13:42 34° NE 21:18:47 10° ESE
Cosmos-2242 4.1 21:12:05 10° N 21:15:57 32° ENE 21:18:22 18° SE
Cosmos 1812 Rocket 4.3 21:12:09 10° N 21:16:24 41° ENE 21:19:01 20° SE
Cosmos 1606 4.4 21:14:16 10° NNE 21:17:25 23° ENE 21:19:29 16° ESE
Cosmos 1932 4.4 21:12:55 10° SSW 21:19:08 76° SE 21:25:30 10° NE
Cosmos 2181 Rocket 4.0 21:17:08 16° S 21:22:13 76° E 21:28:30 10° NNE
Cosmos 1821 Rocket 4.5 21:16:30 10° N 21:22:32 48° ENE 21:26:44 19° SE
ERS-1 Rocket 4.4 21:22:19 10° SSW 21:26:44 31° W 21:31:12 10° NNW
Cosmos 1892 3.1 21:26:26 15° SSW 21:29:25 59° WNW 21:33:11 10° N
Cosmos 1602 Rocket 4.0 21:28:28 25° SSE 21:30:39 46° E 21:34:49 10° NNE
Cosmos 1354 Rocket 4.1 21:30:31 10° NNW 21:35:51 71° ENE 21:39:12 23° SE
Cosmos 2237 4.5 21:30:47 10° NNW 21:36:31 65° ENE 21:40:30 20° SE
Cosmos 1503 Rocket 4.0 21:39:05 10° NNW 21:44:25 85° WSW 21:47:32 25° SSE
Spot 4 4.0 21:42:42 24° SSE 21:45:29 65° ENE 21:50:16 10° N
Cosmos 1980 Rocket 3.7 21:41:32 10° NW 21:46:11 26° WSW 21:50:07 13° SSW
ALOS 2 3.4 21:44:13 21° SE 21:46:40 41° ENE 21:50:49 10° N
Nadezhda 3 Rocket 4.4 21:43:20 22° SSE 21:47:01 49° E 21:52:55 10° NNE
ERS-2 4.3 21:46:31 10° ENE 21:48:02 12° E 21:48:35 12° E
Cosmos 2219 Rocket 3.7 21:44:26 10° NNW 21:49:27 30° NE 21:54:26 10° ESE
SL-16 R/B 2.2 21:43:49 10° NNW 21:49:31 80° WSW 21:52:57 25° SSE
Cosmos 1777 Rocket 4.3 21:44:21 10° NNW 21:49:37 62° ENE 21:52:54 23° SE
Cosmos 1408 4.4 21:48:57 10° SW 21:51:52 25° WNW 21:54:49 10° NNW
Cosmos 1626 Rocket 3.7 21:50:06 21° SSW 21:52:54 72° W 21:57:17 10° N
USA 267 3.4 21:46:37 10° ENE 21:52:56 48° SE 21:59:13 10° SSW
H-2A R/B 4.4 21:51:07 10° NNE 21:54:58 34° E 21:56:24 27° SE
Cosmos 2058 3.9 21:53:50 26° SE 21:55:22 34° E 21:59:09 10° NNE
ATLAS 5 CENTAUR R/B 1.6 21:51:48 10° SW 21:55:33 69° NW 21:59:51 10° NE
SJ 16-02 1.3 21:57:01 10° NNW 22:01:29 89° WSW 22:03:35 31° SSE
SL-4 R/B 2.1 22:04:44 38° SE 22:04:44 38° SE 22:08:01 10° E
Cosmos 1825 Rocket 4.0 22:04:05 30° SSE 22:05:48 47° E 22:09:59 10° NNE
Meteor 2-20 4.4 22:03:59 23° S 22:07:55 82° E 22:14:02 10° NNE
Cosmos 1825 3.4 22:08:00 16° SW 22:10:30 36° WNW 22:14:00 10° N
Cosmos 2221 3.7 22:09:16 10° N 22:13:15 33° ENE 22:15:26 21° ESE
Cosmos 2322 Rocket 2.4 22:17:54 10° NW 22:23:31 62° WSW 22:26:28 28° S
Terra 4.4 22:25:48 10° W 22:26:56 11° W 22:28:04 10° WNW
USA 234 3.2 22:22:04 11° ESE 22:28:31 86° SSW 22:35:08 10° WNW
USA 276 4.3 22:27:55 10° W 22:28:42 14° WSW 22:28:42 14° WSW
Cosmos 1934 Rocket 4.0 22:25:05 10° N 22:31:13 77° E 22:34:46 27° SSE
Meteor 2-20 Rocket 4.4 22:33:21 25° SSW 22:37:05 85° W 22:43:14 10° N
BREEZE-M DEB (TANK) 4.0 22:34:23 10° W 22:38:01 69° SSW 22:53:23 10° ESE
Cosmos 1633 4.0 22:39:00 19° WSW 22:40:44 29° WNW 22:43:49 10° N
Cosmos 2333 Rocket 2.3 22:38:46 10° NNW 22:44:35 83° ENE 22:48:06 25° SSE
Cosmos 1758 Rocket 4.5 22:42:25 21° SW 22:44:55 42° WNW 22:49:09 10° N
Cosmos 1933 4.4 22:43:37 10° N 22:47:21 37° ENE 22:49:07 24° ESE
USA 290 3.8 22:44:31 10° N 22:47:25 29° ENE 22:48:53 20° ESE
Cosmos 2082 Rocket 4.5 22:45:39 10° W 22:50:06 23° NW 22:54:35 10° NNE
Cosmos 1812 4.4 22:49:20 10° NNE 22:52:36 26° ENE 22:54:29 18° ESE
COSMOS 2487 3.1 22:52:54 32° ESE 22:52:54 32° ESE 22:55:41 10° NE
Cosmos 1606 3.9 22:49:35 10° NNW 22:53:04 32° W 22:54:21 26° SW
Cosmos-2242 4.4 22:49:45 10° NNW 22:53:22 27° W 22:55:10 20° SW
Cosmos 990 Rocket 4.2 22:49:14 10° NNW 22:54:22 65° ENE 22:57:26 24° SE
ADEOS Rocket 3.8 22:53:13 25° S 22:57:49 61° W 23:05:32 10° NNW
Cosmos 2360 Rocket 2.5 22:52:26 10° NW 22:57:56 52° WSW 23:00:32 30° S
Cosmos 1339 Rocket 4.4 22:54:49 28° S 22:58:16 82° E 23:04:26 10° N
ISS -2.8 23:00:48 33° ESE 23:00:48 33° ESE 23:03:11 10° E
Cosmos 1340 Rocket 2.9 22:58:42 37° SSW 23:00:09 70° WNW 23:04:09 10° N
Gbstr 26 Del rocket 3.1 22:59:00 18° SW 23:02:08 70° SSE 23:07:22 10° ENE
Meteor 2-3 Rocket 4.1 23:04:49 28° SSE 23:07:36 54° E 23:13:02 10° NNE
Cosmos 2333 4.3 23:01:52 10° NNW 23:07:38 69° WSW 23:10:38 29° S
Cosmos 1076 Rocket 3.9 23:09:43 33° SSE 23:11:22 52° E 23:15:38 10° NNE
Cosmos 540 Rocket 4.5 23:10:08 24° SE 23:12:12 33° ESE 23:16:47 10° NE
BREEZE-M DEB (TANK) 2.8 23:12:24 45° S 23:12:47 48° SSE 23:18:32 10° ENE
SL-27 R/B 2.2 23:13:18 57° SSE 23:13:48 70° ESE 23:17:04 10° NNE
SL-16 R/B 4.5 23:10:37 10° ESE 23:15:28 24° NE 23:20:19 10° N
NOSS 3-2 (A) 4.0 23:13:40 27° SSE 23:15:48 37° ESE 23:21:30 10° NE
Cosmos 44 3.1 23:14:09 26° SW 23:16:43 82° NW 23:21:11 10° NE
Cosmos 1833 4.2 23:14:26 24° SW 23:17:54 79° WNW 23:23:32 10° NNE
Cosmos 1782 2.9 23:16:51 10° N 23:20:49 67° ENE 23:22:20 35° SSE
ERS-2 2.3 23:18:12 10° N 23:21:46 60° WNW 23:22:56 37° SW
ALOS 2 4.1 23:21:37 20° SW 23:23:10 25° W 23:26:47 10° NW
Lacrosse 4 Rocket 4.3 23:22:00 10° N 23:24:16 14° NNE 23:26:33 10° ENE
Cosmos 2237 Rocket 3.4 23:19:08 10° NNW 23:24:28 39° NE 23:29:45 10° ESE
Cosmos 1605 Rocket 4.1 23:18:26 10° NNW 23:24:50 72° W 23:28:27 27° S
CENTAUR R/B 3.1 23:22:31 27° SSE 23:25:11 42° ESE 23:31:39 10° NE
COSMOS 2428 2.7 23:25:13 10° NNW 23:30:58 87° WSW 23:34:37 23° SSE
Cosmos 2297 Rocket 3.9 23:29:19 15° SE 23:32:05 21° E 23:36:10 10° NE
SL-16 R/B 4.2 23:29:49 10° WNW 23:32:42 14° W 23:34:48 12° WSW
Cosmos 2151 3.1 23:31:03 35° SSE 23:32:44 67° E 23:37:01 10° NNE
Cosmos 2219 Rocket 2.3 23:28:12 10° NW 23:33:47 61° WSW 23:36:40 29° S
USA 267 3.5 23:29:39 10° ENE 23:36:11 73° NNW 23:42:42 10° WSW
SJ 16-02 3.7 23:37:58 10° WNW 23:39:16 11° W 23:40:31 10° WSW
ATLAS 5 CENTAUR R/B 4.2 23:37:50 10° WNW 23:40:56 20° NNW 23:44:24 10° NNE
SL-19 R/B 4.5 23:40:04 32° SSE 23:41:57 84° ENE 23:46:32 10° NNW
Cosmos 2322 3.9 23:37:22 10° NW 23:42:55 56° WSW 23:45:44 28° S
SL-4 R/B 1.8 23:40:21 10° W 23:43:53 75° NNW 23:47:41 10° ENE
Cosmos 1898 Rocket 3.4 23:39:02 10° NNW 23:44:13 77° WSW 23:47:02 27° SSE
Cosmos 1151 Rocket 4.2 23:41:14 10° N 23:45:21 37° ENE 23:48:25 16° SE
Cosmos 1937 Rocket 3.5 23:44:09 10° NNW 23:49:26 89° ENE 23:52:46 23° SSE
Cosmos 2221 3.8 23:46:56 10° NNW 23:50:41 28° W 23:52:14 23° SW
COSMOS 2455 3.2 23:45:57 10° NNW 23:51:58 66° NE 23:57:57 10° SE
PSLV R/B 4.4 23:48:28 10° N 23:53:03 48° WNW 23:55:36 24° SW
Cosmos 1184 Rocket 3.3 23:53:49 10° N 23:56:47 49° ENE 23:57:49 32° SE
